Stations météo

réclame
Mon MeteoGroup
Charleroi/Gosselies, Belgique (6449): Température de l'air & dewpoint: 19.02.2018 22:00:00 - 25.02.2018 22:00:00 (CET)Charleroi/Gosselies, Belgique (6449): Vitesse du vent & gusts: 19.02.2018 22:00:00 - 25.02.2018 22:00:00 (CET)Charleroi/Gosselies, Belgique (6449): Direction du vent: 19.02.2018 22:00:00 - 25.02.2018 22:00:00 (CET)Charleroi/Gosselies, Belgique (6449): reduced air pressure: 19.02.2018 22:00:00 - 25.02.2018 22:00:00 (CET)Charleroi/Gosselies, Belgique (6449): visibility: 19.02.2018 22:00:00 - 25.02.2018 22:00:00 (CET)
Date & Time tt [°C] td [°C] ff [km/h] ff [knt] fx [km/h] fx [knt] dd ppp [hPa] vv [km]
25.02.2018 22:00:00 -3,9 -12,1 24 13 - - NE 1027,6 10
25.02.2018 21:00:00 -3,6 -12,2 22 12 32 18 NE 1027,6 10
25.02.2018 20:00:00 -3,0 -12,8 22 12 32 18 NE 1027,3 10
25.02.2018 19:00:00 -2,3 -13,2 22 12 - - NE 1027,2 10
25.02.2018 18:00:00 -1,4 -14,0 28 15 43 23 NE 1026,8 10
25.02.2018 17:00:00 -0,8 -14,5 31 17 43 23 NE 1026,6 10
25.02.2018 16:00:00 -0,4 -15,2 31 17 - - ENE 1026,6 10
25.02.2018 15:00:00 -0,1 -15,1 31 17 43 23 ENE 1026,7 10
25.02.2018 14:00:00 -0,1 -14,4 29 16 43 23 NE 1027,0 10
25.02.2018 13:00:00 -0,4 -14,1 28 15 - - NE 1027,3 10
25.02.2018 12:00:00 -1,7 -14,5 29 16 43 23 ENE 1027,7 10
25.02.2018 11:00:00 -2,3 -13,6 28 15 40 21 ENE 1027,7 10
25.02.2018 10:00:00 -3,8 -13,3 26 14 - - ENE 1027,6 10
25.02.2018 09:00:00 -4,8 -12,3 24 13 43 23 ENE 1027,1 10
25.02.2018 08:00:00 -5,4 -11,7 28 15 43 23 ENE 1026,8 10
25.02.2018 07:00:00 -5,1 -11,3 24 13 - - ENE 1026,4 10
25.02.2018 06:00:00 -4,9 -11,3 22 12 32 18 ENE 1025,9 10
25.02.2018 05:00:00 -4,3 -11,2 24 13 32 18 ENE 1025,4 10
25.02.2018 04:00:00 -3,9 -11,2 24 13 - - ENE 1025,2 10
25.02.2018 03:00:00 -3,5 -11,1 21 11 32 18 ENE 1025,1 10
25.02.2018 02:00:00 -2,9 -10,5 22 12 36 19 ENE 1024,9 10
25.02.2018 01:00:00 -2,6 -9,4 26 14 - - ENE 1024,9 10
25.02.2018 00:00:00 -2,0 -8,7 26 14 36 19 ENE 1024,6 10
24.02.2018 23:00:00 -1,5 -9,1 26 14 47 25 ENE 1024,2 10
24.02.2018 22:00:00 -1,1 -9,8 34 18 - - ENE 1023,7 10
24.02.2018 21:00:00 -0,5 -9,7 31 17 58 31 ENE 1023,3 10
24.02.2018 20:00:00 0,1 -6,1 29 16 50 27 ENE 1022,6 10
24.02.2018 19:00:00 1,1 -6,4 35 19 - - ENE 1022,0 10
24.02.2018 18:00:00 2,5 -7,6 35 19 58 31 ENE 1021,4 10
24.02.2018 17:00:00 3,9 -8,5 37 20 54 29 ENE 1020,6 10
24.02.2018 16:00:00 4,2 -9,0 39 21 - - ENE 1020,5 10
24.02.2018 15:00:00 4,2 -9,8 39 21 54 29 ENE 1020,3 10
24.02.2018 14:00:00 3,1 -10,2 37 20 50 27 ENE 1020,5 10
24.02.2018 13:00:00 1,9 -11,4 35 19 - - ENE 1020,9 10
24.02.2018 12:00:00 0,4 -11,7 35 19 47 25 ENE 1021,4 10
24.02.2018 11:00:00 -1,1 -12,1 29 16 43 23 ENE 1021,5 10
24.02.2018 10:00:00 -2,5 -12,0 34 18 - - ENE 1021,5 10
24.02.2018 09:00:00 -4,1 -11,2 29 16 40 21 ENE 1021,6 10
24.02.2018 08:00:00 -5,0 -10,3 29 16 40 21 ENE 1021,1 10
24.02.2018 07:00:00 -4,8 -10,1 24 13 - - ENE 1020,5 10
24.02.2018 06:00:00 -4,5 -9,7 24 13 32 18 ENE 1020,4 10
24.02.2018 05:00:00 -4,2 -10,1 22 12 32 18 ENE 1020,1 10
24.02.2018 04:00:00 -3,7 -10,1 21 11 - - ENE 1020,0 10
24.02.2018 03:00:00 -3,5 -9,5 18 10 29 16 ENE 1019,9 10
24.02.2018 02:00:00 -3,3 -8,6 22 12 29 16 NE 1020,0 10
24.02.2018 01:00:00 -2,9 -7,9 21 11 - - ENE 1019,8 10
24.02.2018 00:00:00 -2,1 -7,8 18 10 25 14 ENE 1019,4 10
23.02.2018 23:00:00 -2,0 -7,1 22 12 29 16 ENE 1019,2 10
23.02.2018 22:00:00 -1,8 -7,1 22 12 - - ENE 1019,5 10
23.02.2018 21:00:00 -0,9 -7,5 24 13 32 18 ENE 1019,5 10
23.02.2018 20:00:00 -0,6 -7,3 22 12 29 16 ENE 1019,3 20
23.02.2018 19:00:00 -0,3 -7,5 22 12 - - NE 1019,1 10
23.02.2018 18:00:00 0,5 -8,0 29 16 47 25 NE 1018,8 10
23.02.2018 17:00:00 1,1 -8,8 34 18 43 23 NE 1018,7 10
23.02.2018 16:00:00 1,3 -8,2 34 18 - - ENE 1018,9 10
23.02.2018 15:00:00 1,4 -8,9 31 17 47 25 ENE 1019,4 10
23.02.2018 14:00:00 1,0 -9,4 34 18 47 25 ENE 1019,8 10
23.02.2018 13:00:00 0,3 -8,6 34 18 - - ENE 1020,4 10
23.02.2018 12:00:00 0,1 -7,6 34 18 47 25 ENE 1020,8 10
23.02.2018 11:00:00 -1,1 -6,9 31 17 43 23 ENE 1020,9 10
23.02.2018 10:00:00 -1,8 -6,5 26 14 - - ENE 1021,1 10
23.02.2018 09:00:00 -2,9 -6,4 22 12 32 18 ENE 1021,3 10
23.02.2018 08:00:00 -3,6 -6,7 22 12 29 16 ENE 1021,3 10
23.02.2018 07:00:00 -3,3 -7,1 21 11 - - ENE 1021,0 10
23.02.2018 06:00:00 -3,6 -6,7 18 10 25 14 ENE 1021,2 10
23.02.2018 05:00:00 -3,4 -6,7 18 10 29 16 NE 1021,1 10
23.02.2018 04:00:00 -3,4 -6,3 18 10 - - NE 1021,1 10
23.02.2018 03:00:00 -3,2 -5,9 16 9 29 16 NE 1021,2 10
23.02.2018 02:00:00 -2,5 -5,5 18 10 29 16 ENE 1021,5 10
23.02.2018 01:00:00 -2,4 -5,2 22 12 - - NE 1021,7 10
23.02.2018 00:00:00 -1,7 -5,3 22 12 36 19 ENE 1021,5 10
22.02.2018 23:00:00 -1,1 -5,1 26 14 36 19 ENE 1021,7 10
22.02.2018 22:00:00 -0,8 -5,1 22 12 - - ENE 1021,6 10
22.02.2018 21:00:00 -0,1 -5,4 22 12 32 18 NE 1021,3 10
22.02.2018 20:00:00 -0,2 -5,0 16 9 32 18 NE 1021,5 10
22.02.2018 19:00:00 0,6 -5,9 22 12 - - NE 1021,0 10
22.02.2018 18:00:00 1,5 -6,1 24 13 40 21 NE 1020,7 10
22.02.2018 17:00:00 2,2 -6,1 29 16 47 25 ENE 1020,8 10
22.02.2018 16:00:00 3,0 -6,1 29 16 - - ENE 1020,8 10
22.02.2018 15:00:00 2,9 -7,3 42 23 54 29 ENE 1021,3 10
22.02.2018 14:00:00 2,9 -5,9 31 17 40 21 ENE 1021,9 10
22.02.2018 13:00:00 2,3 -4,8 28 15 - - ENE 1022,3 10
22.02.2018 12:00:00 1,2 -4,7 29 16 40 21 ENE 1022,7 10
22.02.2018 11:00:00 -0,3 -4,7 28 15 40 21 ENE 1023,0 10
22.02.2018 10:00:00 -1,7 -5,0 26 14 - - ENE 1023,1 9
22.02.2018 09:00:00 -2,7 -4,9 24 13 32 18 NE 1023,0 6
22.02.2018 08:00:00 -3,6 -5,2 21 11 29 16 NE 1022,9 5
22.02.2018 07:00:00 -3,3 -4,9 21 11 - - NE 1022,6 5
22.02.2018 06:00:00 -3,3 -4,9 18 10 22 12 NE 1022,5 5
22.02.2018 05:00:00 -3,3 -4,8 16 9 22 12 NE 1022,4 6
22.02.2018 04:00:00 -3,1 -4,7 16 9 - - NE 1022,6 6
22.02.2018 03:00:00 -2,5 -4,4 18 10 25 14 NE 1023,0 7
22.02.2018 02:00:00 -2,2 -4,4 18 10 25 14 NE 1023,2 7
22.02.2018 01:00:00 -1,7 -4,4 18 10 - - NE 1023,5 7
22.02.2018 00:00:00 -1,3 -4,1 16 9 25 14 NE 1023,7 8
21.02.2018 23:00:00 -0,8 -4,0 16 9 25 14 NE 1024,0 8
21.02.2018 22:00:00 -0,6 -3,9 16 9 - - NE 1024,3 7
21.02.2018 21:00:00 -0,4 -3,8 13 7 18 10 NNE 1024,1 7
21.02.2018 20:00:00 0,2 -3,8 15 8 22 12 NNE 1024,1 7
21.02.2018 19:00:00 0,9 -4,1 15 8 - - NE 1023,9 7
21.02.2018 18:00:00 2,0 -3,6 15 8 29 16 NE 1023,6 7
21.02.2018 17:00:00 3,0 -3,8 21 11 29 16 NE 1023,5 7
21.02.2018 16:00:00 3,1 -3,5 22 12 - - NNE 1023,7 7
21.02.2018 15:00:00 3,2 -3,0 21 11 29 16 NE 1024,3 7
21.02.2018 14:00:00 2,2 -3,1 22 12 32 18 NE 1025,0 7
21.02.2018 13:00:00 1,8 -2,9 18 10 - - NNE 1025,4 6
21.02.2018 12:00:00 1,5 -2,5 18 10 29 16 ENE 1025,6 6
21.02.2018 11:00:00 -0,3 -2,8 16 9 22 12 NE 1025,8 5
21.02.2018 10:00:00 -1,3 -3,6 16 9 - - NE 1025,5 4,5
21.02.2018 09:00:00 -2,5 -4,0 13 7 22 12 NNE 1025,4 3,5
21.02.2018 08:00:00 -2,9 -4,5 13 7 18 10 NNE 1025,1 3,5
21.02.2018 07:00:00 -2,7 -4,3 13 7 - - NNE 1024,7 4,0
21.02.2018 06:00:00 -2,5 -4,0 15 8 22 12 NE 1024,3 4,5
21.02.2018 05:00:00 -2,0 -3,6 15 8 22 12 NE 1024,1 4,5
21.02.2018 04:00:00 -1,7 -3,5 13 7 - - NNE 1024,0 5
21.02.2018 03:00:00 -1,5 -3,4 15 8 18 10 NNE 1023,8 5
21.02.2018 02:00:00 -1,1 -3,1 15 8 22 12 NE 1023,5 6
21.02.2018 01:00:00 -0,6 -2,7 15 8 - - NNE 1023,3 6
21.02.2018 00:00:00 0,0 -2,5 13 7 22 12 NNE 1022,6 7
20.02.2018 23:00:00 0,4 -2,0 13 7 22 12 NNE 1021,9 7
20.02.2018 22:00:00 0,7 -1,9 13 7 - - NNE 1021,3 7
20.02.2018 21:00:00 1,2 -1,9 11 6 18 10 NNE 1020,9 7
20.02.2018 20:00:00 1,7 -1,5 11 6 14 8 NNE 1020,3 7
20.02.2018 19:00:00 2,6 -1,4 11 6 - - NNE 1019,7 8
20.02.2018 18:00:00 3,3 -1,1 13 7 18 10 NE 1019,3 8
20.02.2018 17:00:00 4,1 -1,9 9 5 14 8 N 1018,4 10
20.02.2018 16:00:00 4,0 -1,4 8 4 - - NNE 1018,3 10
20.02.2018 15:00:00 4,2 -1,5 8 4 14 8 NNE 1018,5 10
20.02.2018 14:00:00 4,1 -1,4 8 4 14 8 NNE 1018,8 10
20.02.2018 13:00:00 3,8 -0,9 5 3 - - N 1018,9 10
20.02.2018 12:00:00 2,7 -0,6 8 4 14 8 ENE 1019,0 9
20.02.2018 11:00:00 2,3 -0,4 5 3 11 6 NNE 1019,2 7
20.02.2018 10:00:00 1,7 -0,3 8 4 - - NNE 1018,8 6
20.02.2018 09:00:00 0,5 -0,4 5 3 7 4 NNW 1018,8 5
20.02.2018 08:00:00 0,0 -0,8 4 2 11 6 - 1018,5 4,5
20.02.2018 07:00:00 0,3 -0,5 2 1 - - - 1018,0 4,0
20.02.2018 06:00:00 0,3 -0,5 4 2 7 4 E 1018,0 4,0
20.02.2018 05:00:00 -0,1 -0,5 5 3 11 6 ENE 1018,0 2,8
20.02.2018 04:00:00 0,0 -0,5 2 1 - - - 1018,1 4,0
20.02.2018 03:00:00 0,4 -0,3 8 4 7 4 E 1017,6 4,5
20.02.2018 02:00:00 0,3 -0,1 4 2 7 4 ENE 1017,6 4,5
20.02.2018 01:00:00 0,9 0,3 5 3 - - SSE 1017,7 5
20.02.2018 00:00:00 1,1 0,3 5 3 14 8 S 1017,7 6
19.02.2018 23:00:00 1,5 0,6 5 3 14 8 S 1017,5 6
19.02.2018 22:00:00 1,5 0,6 9 5 - - S 1017,8 6

tt = Température de l'air
td = dewpoint
ff = Vitesse du vent
fx = gusts
dd = Direction du vent
ppp = reduced air pressure
vv = visibility

stations d'obs. à proximité